Regional Weather Roundup
Issued by NWS Green Bay, WI

Home | Current Version | Previous Version | Graphics & Text | Print | Product List | Glossary Off
Versions: 1 2 3 4 5 6 7 8 9 10 11 12 13 14 15 16 17 18 19 20 21 22 23 24 25 26 27 28 29 30 31 32 33 34 35 36 37 38 39 40 41 42 43 44 45 46 47 48 49 50

000
ASUS43 KGRB 231859
RWRGRB

NORTH-CENTRAL AND NORTHEAST WISCONSIN REGIONAL WEATHER ROUNDUP
NATIONAL WEATHER SERVICE GREEN BAY WI
200 PM CDT TUE SEP 23 2014

WIZ005-009-010>012-018-019-232000-
NORTH CENTRAL WISCONSIN

CITY           SKY/WX    TMP DP  RH WIND       PRES   REMARKS
IRONWOOD       SUNNY     73  48  40 S8        30.19F
MANITOWISH WTR NOT AVBL
ARBOR VITAE    NOT AVBL
EAGLE RIVER    NOT AVBL
LAND O LAKES   NOT AVBL
RHINELANDER    SUNNY     71  49  45 S9        30.27F
PHILLIPS       NOT AVBL
ANTIGO         NOT AVBL
TOMAHAWK       NOT AVBL
MERRILL        NOT AVBL
$$

WIZ013-073-232000-
NORTHEAST WISCONSIN

CITY           SKY/WX    TMP DP  RH WIND       PRES   REMARKS
IRON MOUNTAIN  SUNNY     76  51  41 VRB3      30.24F
MARINETTE      SUNNY     73  55  53 SW10G16   30.25S
$$

WIZ017-030-035>037-045-232000-
CENTRAL WISCONSIN

CITY           SKY/WX    TMP DP  RH WIND       PRES   REMARKS
MEDFORD        NOT AVBL
WAUSAU         SUNNY     72  50  45 W7        30.26F
MOSINEE        SUNNY     72  52  49 SW5       30.28F
MARSHFIELD     SUNNY     72  50  45 SW9       30.26F
WISC RAPIDS    SUNNY     72  51  47 MISG      30.28F
STEVENS POINT  NOT AVBL
WAUPACA        NOT AVBL
SHAWANO        NOT AVBL
CLINTONVILLE   NOT AVBL
$$

WIZ038-039-048-051-232000-
FOX VALLEY

CITY           SKY/WX    TMP DP  RH WIND       PRES   REMARKS
NWS GREEN BAY  SUNNY     73  53  49 SW9       30.28F
APPLETON       SUNNY     72  50  46 SW9       30.29F
OSHKOSH        SUNNY     73  51  46 SW7       30.28F
FOND DU LAC    SUNNY     73  51  46 S10       30.29F
$$

WIZ022-050-052-232000-
EAST CENTRAL WISCONSIN

CITY           SKY/WX    TMP DP  RH WIND       PRES   REMARKS
STURGEON BAY   SUNNY     72  54  53 SW8       30.28F
MANITOWOC      NOT AVBL
SHEBOYGAN      SUNNY     74  50  42 MISG      30.29F
$$

LMZ563-521-522-541>543-232000-
LAKESHORE

STATION/POSITION TIME  TEMP    WIND        PRES    VSBY  WAVE
                       AIR SEA DIR/SP/G                  HT/PER
                 (UTC) (F)     (DEG/KT/KT) (MB)    (MI)  (FT/S)
SHEBOYGAN LKSHOR 1800   56 55  170/ 10/ 11 1026.5F
KEWAUNEE LKSHORE 1800   57     180/  9/  9 1024.8F
NORTHPORT PIER   1800   62     120/  2/  5 1024.7S
N MID LAKE BUOY  1800   58 58  200/  8/ 10 1025.4R         1/ 4
S GREEN BAY BUOY 1800   63     VRB  6/  8  1026.2F
STURGEON BAY CG  1800   58 54  180/  9     1025.3      6   1
CHAMBERS ISLAND  1800   68     170/  5/ 12 1024.7F
MENOMINEE LKSHOR 1800   67     160/ 10/ 12 1025.0F
$$



USA.gov is the U.S. government's official web portal to all federal, state and local government web resources and services.